This demonstration page uses our WeatherBlox Daily Observations layout. Learn more.

Left ArrowRight Arrow

Hourly Observations for February 12, 2016

Temp ( °F °C ) Dew Point ( °F °C ) Humidity (%) Winds ( mph kmh ) Pressure ( in mb ) Visibility ( mi km ) Precip ( " mm )
12:15 am 00:15 Clear 30 -1 27 -3 86 86 N 10 17 30.33 1027 10 16 0.00 0.00
12:35 am 00:35 Partly Cloudy 30 -1 27 -3 86 86 N 12 19 30.33 1027 10 16 0.00 0.00
12:55 am 00:55 Mostly Cloudy 30 -1 28 -2 93 93 NNW 9 15 30.33 1027 10 16 0.00 0.00
1:15 am 01:15 Cloudy 32 0 28 -2 87 87 NNW 7 11 30.36 1028 10 16 0.00 0.00
1:35 am 01:35 Cloudy 32 0 28 -2 87 87 N 12 19 30.36 1028 10 16 0.00 0.00
1:55 am 01:55 Cloudy 30 -1 27 -3 86 86 N 12 19 30.36 1028 10 16 0.00 0.00
2:15 am 02:15 Cloudy 30 -1 27 -3 86 86 N 14 22 30.36 1028 10 16 0.00 0.00
2:35 am 02:35 Cloudy 30 -1 27 -3 86 86 N 15 24 30.36 1028 10 16 0.00 0.00
2:55 am 02:55 Cloudy 30 -1 27 -3 86 86 N 13 20 30.36 1028 10 16 0.00 0.00
3:15 am 03:15 Cloudy 30 -1 27 -3 86 86 N 13 20 30.36 1028 10 16 0.00 0.00
3:35 am 03:35 Cloudy 30 -1 27 -3 86 86 N 12 19 30.39 1029 10 16 0.00 0.00
3:55 am 03:55 Cloudy 30 -1 25 -4 80 80 N 13 20 30.39 1029 10 16 0.00 0.00
4:15 am 04:15 Cloudy 30 -1 25 -4 80 80 N 10 17 30.39 1029 10 16 0.00 0.00
4:35 am 04:35 Cloudy 30 -1 27 -3 86 86 NNW 13 20 30.39 1029 10 16 0.00 0.00
4:55 am 04:55 Cloudy 30 -1 27 -3 86 86 NNW 10 17 30.39 1029 10 16 0.00 0.00
5:15 am 05:15 Cloudy 30 -1 27 -3 86 86 N 10 17 30.39 1029 10 16 0.00 0.00
5:35 am 05:35 Cloudy 30 -1 27 -3 86 86 N 10 17 30.39 1029 10 16 0.00 0.00
5:55 am 05:55 Cloudy 30 -1 27 -3 86 86 N 9 15 30.42 1030 10 16 0.00 0.00
6:15 am 06:15 Cloudy 30 -1 25 -4 80 80 N 8 13 30.42 1030 10 16 0.00 0.00
6:35 am 06:35 Cloudy 30 -1 25 -4 80 80 N 7 11 30.42 1030 10 16 0.00 0.00
6:55 am 06:55 Cloudy 30 -1 27 -3 86 86 N 9 15 30.45 1031 10 16 0.00 0.00
7:15 am 07:15 Cloudy 28 -2 25 -4 86 86 NNE 9 15 30.45 1031 10 16 0.00 0.00
7:35 am 07:35 Cloudy 28 -2 25 -4 86 86 NNE 9 15 30.45 1031 10 16 0.00 0.00
7:55 am 07:55 Cloudy 28 -2 25 -4 86 86 NNE 8 13 30.48 1032 10 16 0.00 0.00
8:15 am 08:15 Cloudy 28 -2 25 -4 86 86 NNE 7 11 30.48 1032 10 16 0.00 0.00
8:35 am 08:35 Cloudy 28 -2 25 -4 86 86 NNE 6 9 30.48 1032 10 16 0.00 0.00
8:55 am 08:55 Cloudy 28 -2 25 -4 86 86 NNE 7 11 30.48 1032 10 16 0.00 0.00
9:15 am 09:15 Cloudy 28 -2 25 -4 86 86 NNE 7 11 30.48 1032 10 16 0.00 0.00
9:35 am 09:35 Cloudy 28 -2 25 -4 86 86 NNE 3 6 30.53 1034 10 16 0.00 0.00
9:55 am 09:55 Cloudy 30 -1 25 -4 80 80 N 8 13 30.50 1033 10 16 0.00 0.00
10:15 am 10:15 Cloudy 30 -1 27 -3 86 86 NNE 8 13 30.50 1033 10 16 0.00 0.00
10:35 am 10:35 Cloudy 30 -1 25 -4 80 80 NNE 9 15 30.50 1033 10 16 0.00 0.00
10:55 am 10:55 Cloudy 30 -1 25 -4 80 80 NNE 9 15 30.53 1034 10 16 0.00 0.00
11:15 am 11:15 Cloudy 30 -1 27 -3 86 86 NNE 12 19 30.53 1034 10 16 0.00 0.00
11:35 am 11:35 Cloudy 32 0 27 -3 80 80 N 13 20 30.53 1034 10 16 0.00 0.00
11:55 am 11:55 Cloudy 32 0 27 -3 80 80 NNE 13 20 30.53 1034 10 16 0.00 0.00
12:15 pm 12:15 Cloudy 32 0 27 -3 80 80 N 13 20 30.53 1034 10 16 0.00 0.00
12:35 pm 12:35 Cloudy 30 -1 27 -3 86 86 N 10 17 30.53 1034 10 16 0.00 0.00
12:55 pm 12:55 Cloudy 30 -1 27 -3 86 86 NNE 13 20 30.53 1034 10 16 0.00 0.00
1:15 pm 13:15 Cloudy 30 -1 27 -3 86 86 NE 12 19 30.53 1034 10 16 0.00 0.00
1:35 pm 13:35 Cloudy 30 -1 25 -4 80 80 NE 15 24 30.53 1034 10 16 0.00 0.00
1:55 pm 13:55 Cloudy 28 -2 25 -4 86 86 NE 14 22 30.56 1035 6 10 0.00 0.00
2:15 pm 14:15 Cloudy 28 -2 25 -4 86 86 NE 16 26 30.56 1035 3 5 0.00 0.00
2:35 pm 14:35 Cloudy 27 -3 25 -4 93 93 NE 16 26 30.56 1035 1 1 0.00 0.00
2:55 pm 14:55 Cloudy 27 -3 23 -5 86 86 NE 14 22 30.56 1035 1 2 0.00 0.00
3:15 pm 15:15 Cloudy 25 -4 23 -5 93 93 NNE 14 22 30.56 1035 4 6 0.00 0.00
3:35 pm 15:35 Cloudy 25 -4 21 -6 86 86 NE 14 22 30.56 1035 10 16 0.00 0.00
3:55 pm 15:55 Cloudy 27 -3 21 -6 80 80 NNE 12 19 30.59 1036 10 16 0.00 0.00
4:15 pm 16:15 Cloudy 27 -3 21 -6 80 80 NNE 10 17 30.59 1036 10 16 0.00 0.00
4:35 pm 16:35 Cloudy 27 -3 19 -7 74 74 NE 10 17 30.59 1036 10 16 0.00 0.00
4:55 pm 16:55 Cloudy 27 -3 19 -7 74 74 NNE 12 19 30.59 1036 10 16 0.00 0.00
5:15 pm 17:15 Cloudy 27 -3 18 -8 69 69 NE 10 17 30.59 1036 10 16 0.00 0.00
5:35 pm 17:35 Cloudy 25 -4 18 -8 74 74 ENE 12 19 30.59 1036 10 16 0.00 0.00
5:55 pm 17:55 Cloudy 25 -4 18 -8 74 74 ENE 10 17 30.62 1037 10 16 0.00 0.00
6:15 pm 18:15 Cloudy 25 -4 18 -8 74 74 ENE 9 15 30.62 1037 10 16 0.00 0.00
6:35 pm 18:35 Cloudy 25 -4 16 -9 69 69 E 10 17 30.59 1036 10 16 0.00 0.00
6:55 pm 18:55 Cloudy 25 -4 18 -8 74 74 E 13 20 30.62 1037 10 16 0.00 0.00
7:15 pm 19:15 Cloudy 25 -4 16 -9 69 69 ENE 10 17 30.62 1037 10 16 0.00 0.00
7:35 pm 19:35 Cloudy 25 -4 16 -9 69 69 E 12 19 30.62 1037 10 16 0.00 0.00
7:55 pm 19:55 Cloudy 25 -4 16 -9 69 69 E 13 20 30.68 1039 10 16 0.00 0.00
8:15 pm 20:15 Cloudy 23 -5 16 -9 74 74 E 13 20 30.65 1038 10 16 0.00 0.00
8:35 pm 20:35 Cloudy 23 -5 16 -9 74 74 E 10 17 30.65 1038 10 16 0.00 0.00
8:55 pm 20:55 Cloudy 21 -6 16 -9 80 80 E 12 19 30.68 1039 10 16 0.00 0.00
9:15 pm 21:15 Cloudy 21 -6 16 -9 80 80 E 14 22 30.68 1039 10 16 0.00 0.00
9:35 pm 21:35 Cloudy 21 -6 16 -9 80 80 E 12 19 30.68 1039 10 16 0.00 0.00
9:55 pm 21:55 Cloudy 21 -6 16 -9 80 80 E 13 20 30.65 1038 10 16 0.00 0.00
10:15 pm 22:15 Cloudy 21 -6 16 -9 80 80 ESE 10 17 30.65 1038 10 16 0.00 0.00
10:35 pm 22:35 Cloudy 21 -6 14 -10 74 74 ESE 12 19 30.65 1038 10 16 0.00 0.00
10:55 pm 22:55 Cloudy 19 -7 16 -9 86 86 ESE 10 17 30.65 1038 10 16 0.00 0.00
11:15 pm 23:15 Cloudy 19 -7 16 -9 86 86 ESE 9 15 30.65 1038 10 16 0.00 0.00
11:35 pm 23:35 Cloudy 19 -7 14 -10 79 79 ESE 10 17 30.65 1038 10 16 0.00 0.00
11:55 pm 23:55 Cloudy 19 -7 14 -10 79 79 ESE 10 17 30.65 1038 10 16 0.00 0.00

Powered by AerisWeather